| time (UTC) | temp C | wind direction | speed KPH | gust KPH | rain 1hr cm | rain 24hr cm | rain mn cm | humidity % | barometer mb |
| 20260506201402 | 21 | 72 | 6.4 | 14.5 | 0.00 | 0.00 | 0.00 | 45 | 1020.6 |
| 20260506200901 | 21 | 102 | 9.7 | 14.5 | 0.00 | 0.00 | 0.00 | 46 | 1020.5 |
| 20260506200404 | 21 | 180 | 3.2 | 14.5 | 0.00 | 0.00 | 0.00 | 46 | 1020.5 |
| 20260506195902 | 21 | 92 | 6.4 | 14.5 | 0.00 | 0.00 | 0.00 | 44 | 1020.7 |
| 20260506195403 | 22 | 56 | 3.2 | 9.7 | 0.00 | 0.00 | 0.00 | 44 | 1020.7 |
| 20260506194902 | 22 | 69 | 0.0 | 8.0 | 0.00 | 0.00 | 0.00 | 45 | 1020.8 |
| 20260506194403 | 21 | 282 | 1.6 | 8.0 | 0.00 | 0.00 | 0.00 | 45 | 1020.8 |
| 20260506193904 | 22 | 258 | 3.2 | 11.3 | 0.00 | 0.00 | 0.00 | 45 | 1020.9 |
| 20260506193402 | 22 | 145 | 1.6 | 11.3 | 0.00 | 0.00 | 0.00 | 44 | 1021.0 |
| 20260506192902 | 22 | 54 | 3.2 | 8.0 | 0.00 | 0.00 | 0.00 | 44 | 1021.0 |
| 20260506192402 | 22 | 6 | 1.6 | 6.4 | 0.00 | 0.00 | 0.00 | 45 | 1021.1 |
| 20260506191902 | 22 | 4 | 0.0 | 6.4 | 0.00 | 0.00 | 0.00 | 45 | 1021.2 |
| 20260506191402 | 21 | 252 | 3.2 | 6.4 | 0.00 | 0.00 | 0.00 | 46 | 1021.1 |
| 20260506190903 | 21 | 195 | 1.6 | 4.8 | 0.00 | 0.00 | 0.00 | 46 | 1021.3 |
| 20260506190401 | 21 | 125 | 1.6 | 8.0 | 0.00 | 0.00 | 0.00 | 47 | 1021.3 |
| 20260506185902 | 21 | 104 | 4.8 | 8.0 | 0.00 | 0.00 | 0.00 | 47 | 1021.3 |
| 20260506185402 | 21 | 103 | 4.8 | 8.0 | 0.00 | 0.00 | 0.00 | 47 | 1021.3 |
| 20260506184903 | 21 | 113 | 1.6 | 8.0 | 0.00 | 0.00 | 0.00 | 47 | 1021.4 |
| 20260506184403 | 21 | 0 | 3.2 | 9.7 | 0.00 | 0.00 | 0.00 | 47 | 1021.4 |
| 20260506183902 | 21 | 73 | 4.8 | 9.7 | 0.00 | 0.00 | 0.00 | 46 | 1021.6 |
| 20260506182903 | 21 | 127 | 3.2 | 9.7 | 0.00 | 0.00 | 0.00 | 47 | 1021.6 |
| 20260506182402 | 21 | 96 | 3.2 | 9.7 | 0.00 | 0.00 | 0.00 | 47 | 1021.6 |
| 20260506181902 | 20 | 75 | 1.6 | 6.4 | 0.00 | 0.00 | 0.00 | 48 | 1021.6 |
| 20260506180902 | 20 | 100 | 1.6 | 8.0 | 0.00 | 0.00 | 0.00 | 50 | 1021.6 |
| 20260506180403 | 19 | 118 | 4.8 | 8.0 | 0.00 | 0.00 | 0.00 | 50 | 1021.4 |
| 20260506175404 | 19 | 96 | 8.0 | 14.5 | 0.00 | 0.00 | 0.00 | 50 | 1021.4 |
| 20260506174903 | 19 | 45 | 3.2 | 8.0 | 0.00 | 0.00 | 0.00 | 50 | 1021.4 |
| 20260506174359 | 19 | 147 | 6.4 | 11.3 | 0.00 | 0.00 | 0.00 | 50 | 1021.6 |
| 20260506173902 | 19 | 128 | 6.4 | 14.5 | 0.00 | 0.00 | 0.00 | 50 | 1021.4 |
| 20260506173358 | 18 | 85 | 3.2 | 14.5 | 0.00 | 0.00 | 0.00 | 51 | 1021.4 |
| 20260506172858 | 18 | 123 | 6.4 | 9.7 | 0.00 | 0.00 | 0.00 | 51 | 1021.4 |
| 20260506172357 | 18 | 66 | 4.8 | 9.7 | 0.00 | 0.00 | 0.00 | 51 | 1021.4 |
| 20260506171856 | 18 | 87 | 6.4 | 9.7 | 0.00 | 0.00 | 0.00 | 50 | 1021.6 |
| 20260506171356 | 18 | 107 | 4.8 | 9.7 | 0.00 | 0.00 | 0.00 | 50 | 1021.6 |
| 20260506170849 | 18 | 330 | 0.0 | 8.0 | 0.00 | 0.00 | 0.00 | 50 | 1021.6 |
| 20260506170345 | 18 | 331 | 1.6 | 8.0 | 0.00 | 0.00 | 0.00 | 51 | 1021.7 |
| 20260506165844 | 18 | 321 | 3.2 | 8.0 | 0.00 | 0.00 | 0.00 | 50 | 1021.7 |
| 20260506165336 | 18 | 171 | 0.0 | 0.0 | 0.00 | 0.00 | 0.00 | 51 | 1021.7 |
| 20260506164336 | 18 | 110 | 0.0 | 0.0 | 0.00 | 0.00 | 0.00 | 51 | 1021.7 |
| 20260506163832 | 18 | 47 | 0.0 | 0.0 | 0.00 | 0.00 | 0.00 | 52 | 1021.7 |
| 20260506163332 | 17 | 69 | 0.0 | 0.0 | 0.00 | 0.00 | 0.00 | 52 | 1021.7 |
| 20260506162834 | 17 | 99 | 0.0 | 0.0 | 0.00 | 0.00 | 0.00 | 52 | 1021.7 |
| 20260506162332 | 17 | 96 | 0.0 | 0.0 | 0.00 | 0.00 | 0.00 | 51 | 1021.7 |
| 20260506161829 | 17 | 71 | 0.0 | 0.0 | 0.00 | 0.00 | 0.00 | 52 | 1021.7 |
| 20260506161330 | 17 | 71 | 0.0 | 0.0 | 0.00 | 0.00 | 0.00 | 52 | 1021.7 |
| 20260506160830 | 17 | 89 | 0.0 | 0.0 | 0.00 | 0.00 | 0.00 | 52 | 1021.7 |
| 20260506160331 | 17 | 89 | 0.0 | 0.0 | 0.00 | 0.00 | 0.00 | 53 | 1021.7 |
| 20260506155830 | 17 | 90 | 0.0 | 0.0 | 0.00 | 0.00 | 0.00 | 54 | 1021.8 |
| 20260506155330 | 16 | 90 | 0.0 | 0.0 | 0.00 | 0.00 | 0.00 | 54 | 1021.8 |
| 20260506154831 | 16 | 97 | 0.0 | 0.0 | 0.00 | 0.00 | 0.00 | 55 | 1021.7 |
| 20260506154330 | 16 | 96 | 0.0 | 0.0 | 0.00 | 0.00 | 0.00 | 55 | 1021.7 |
| 20260506153830 | 16 | 18 | 0.0 | 0.0 | 0.00 | 0.00 | 0.00 | 55 | 1021.7 |
| 20260506153330 | 16 | 17 | 0.0 | 0.0 | 0.00 | 0.00 | 0.00 | 56 | 1021.7 |
| 20260506152830 | 16 | 17 | 0.0 | 0.0 | 0.00 | 0.00 | 0.00 | 57 | 1021.7 |
| 20260506152329 | 16 | 17 | 0.0 | 0.0 | 0.00 | 0.00 | 0.00 | 56 | 1021.7 |
| 20260506151829 | 16 | 7 | 0.0 | 0.0 | 0.00 | 0.00 | 0.00 | 57 | 1021.6 |
| 20260506151329 | 15 | 7 | 0.0 | 0.0 | 0.00 | 0.00 | 0.00 | 57 | 1021.6 |
| 20260506150829 | 15 | 7 | 0.0 | 0.0 | 0.00 | 0.00 | 0.00 | 57 | 1021.6 |
| 20260506150329 | 15 | 4 | 0.0 | 0.0 | 0.00 | 0.00 | 0.00 | 58 | 1021.6 |
| 20260506145330 | 14 | 314 | 0.0 | 0.0 | 0.00 | 0.00 | 0.00 | 58 | 1021.6 |
| 20260506144328 | 14 | 314 | 0.0 | 0.0 | 0.00 | 0.00 | 0.00 | 59 | 1021.6 |
| 20260506143830 | 13 | 279 | 0.0 | 0.0 | 0.00 | 0.00 | 0.00 | 59 | 1021.4 |
| 20260506143329 | 13 | 248 | 0.0 | 0.0 | 0.00 | 0.00 | 0.00 | 59 | 1021.4 |
| 20260506142829 | 13 | 247 | 0.0 | 0.0 | 0.00 | 0.00 | 0.00 | 60 | 1021.4 |
| 20260506141830 | 13 | 245 | 0.0 | 0.0 | 0.00 | 0.00 | 0.00 | 60 | 1021.3 |
| 20260506141329 | 13 | 296 | 0.0 | 0.0 | 0.00 | 0.00 | 0.00 | 61 | 1021.3 |
| 20260506140329 | 13 | 321 | 0.0 | 0.0 | 0.00 | 0.00 | 0.00 | 60 | 1021.2 |
| 20260506135829 | 13 | 306 | 0.0 | 0.0 | 0.00 | 0.00 | 0.00 | 60 | 1021.1 |
| 20260506135328 | 13 | 353 | 0.0 | 0.0 | 0.00 | 0.00 | 0.00 | 60 | 1021.1 |
| 20260506134329 | 12 | 343 | 0.0 | 0.0 | 0.00 | 0.00 | 0.00 | 61 | 1021.1 |
| 20260506133828 | 12 | 353 | 0.0 | 0.0 | 0.00 | 0.00 | 0.00 | 61 | 1021.1 |
| 20260506133328 | 12 | 353 | 0.0 | 0.0 | 0.00 | 0.00 | 0.00 | 60 | 1021.1 |
| 20260506132828 | 12 | 353 | 0.0 | 0.0 | 0.00 | 0.00 | 0.00 | 61 | 1021.1 |
| 20260506131829 | 12 | 0 | 0.0 | 0.0 | 0.00 | 0.00 | 0.00 | 60 | 1021.0 |
| 20260506130828 | 12 | 350 | 0.0 | 0.0 | 0.00 | 0.00 | 0.00 | 60 | 1020.9 |
| 20260506130327 | 12 | 286 | 0.0 | 0.0 | 0.00 | 0.00 | 0.00 | 60 | 1021.0 |
| 20260506125827 | 12 | 286 | 0.0 | 0.0 | 0.00 | 0.00 | 0.00 | 60 | 1020.8 |
| 20260506124827 | 12 | 285 | 0.0 | 0.0 | 0.00 | 0.00 | 0.00 | 60 | 1020.8 |
| 20260506124327 | 12 | 285 | 0.0 | 0.0 | 0.00 | 0.00 | 0.00 | 60 | 1020.8 |
| 20260506123827 | 12 | 285 | 0.0 | 0.0 | 0.00 | 0.00 | 0.00 | 60 | 1020.8 |
| 20260506123328 | 12 | 286 | 0.0 | 0.0 | 0.00 | 0.00 | 0.00 | 60 | 1020.8 |
| 20260506122826 | 12 | 283 | 0.0 | 0.0 | 0.00 | 0.00 | 0.00 | 60 | 1020.7 |
| 20260506122326 | 12 | 283 | 0.0 | 0.0 | 0.00 | 0.00 | 0.00 | 60 | 1020.8 |
| 20260506121826 | 12 | 283 | 0.0 | 0.0 | 0.00 | 0.00 | 0.00 | 60 | 1020.7 |
| 20260506121326 | 12 | 283 | 0.0 | 0.0 | 0.00 | 0.00 | 0.00 | 60 | 1020.7 |
| 20260506120824 | 12 | 283 | 0.0 | 0.0 | 0.00 | 0.00 | 0.00 | 60 | 1020.6 |
| 20260506120325 | 12 | 283 | 0.0 | 0.0 | 0.00 | 0.00 | 0.00 | 60 | 1020.7 |
| 20260506115826 | 12 | 283 | 0.0 | 0.0 | 0.00 | 0.00 | 0.00 | 59 | 1020.5 |
| 20260506114826 | 12 | 312 | 0.0 | 0.0 | 0.00 | 0.00 | 0.00 | 60 | 1020.6 |
| 20260506114325 | 12 | 343 | 0.0 | 0.0 | 0.00 | 0.00 | 0.00 | 59 | 1020.5 |
| 20260506113826 | 12 | 343 | 0.0 | 0.0 | 0.00 | 0.00 | 0.00 | 59 | 1020.5 |
| 20260506113325 | 12 | 298 | 0.0 | 0.0 | 0.00 | 0.00 | 0.00 | 59 | 1020.5 |
| 20260506112825 | 12 | 298 | 0.0 | 0.0 | 0.00 | 0.00 | 0.00 | 59 | 1020.4 |
| 20260506112323 | 12 | 298 | 0.0 | 0.0 | 0.00 | 0.00 | 0.00 | 59 | 1020.5 |
| 20260506111325 | 12 | 13 | 0.0 | 0.0 | 0.00 | 0.00 | 0.00 | 59 | 1020.3 |
| 20260506110825 | 12 | 13 | 0.0 | 0.0 | 0.00 | 0.00 | 0.00 | 59 | 1020.3 |
| 20260506110325 | 12 | 351 | 0.0 | 0.0 | 0.00 | 0.00 | 0.00 | 59 | 1020.2 |
| 20260506105326 | 12 | 351 | 0.0 | 0.0 | 0.00 | 0.00 | 0.00 | 59 | 1020.2 |
| 20260506104824 | 12 | 310 | 0.0 | 0.0 | 0.00 | 0.00 | 0.00 | 59 | 1020.2 |
| 20260506103823 | 12 | 319 | 0.0 | 0.0 | 0.00 | 0.00 | 0.00 | 60 | 1020.1 |
| 20260506103324 | 12 | 278 | 0.0 | 0.0 | 0.00 | 0.00 | 0.00 | 60 | 1020.0 |
| 20260506102823 | 12 | 278 | 0.0 | 0.0 | 0.00 | 0.00 | 0.00 | 60 | 1020.1 |
| 20260506102325 | 12 | 0 | 0.0 | 0.0 | 0.00 | 0.00 | 0.00 | 60 | 1020.0 |
| 20260506101823 | 12 | 0 | 0.0 | 0.0 | 0.00 | 0.00 | 0.00 | 60 | 1020.0 |
| 20260506101323 | 12 | 334 | 0.0 | 0.0 | 0.00 | 0.00 | 0.00 | 60 | 1020.0 |
| 20260506095822 | 12 | 11 | 0.0 | 0.0 | 0.00 | 0.00 | 0.00 | 61 | 1019.9 |
| 20260506094822 | 12 | 347 | 0.0 | 0.0 | 0.00 | 0.00 | 0.00 | 62 | 1020.0 |
| 20260506094322 | 12 | 347 | 0.0 | 0.0 | 0.00 | 0.00 | 0.00 | 62 | 1020.1 |
| 20260506093821 | 12 | 317 | 0.0 | 0.0 | 0.00 | 0.00 | 0.00 | 62 | 1020.1 |
| 20260506093320 | 12 | 343 | 0.0 | 0.0 | 0.00 | 0.00 | 0.00 | 63 | 1020.1 |
| 20260506092823 | 12 | 254 | 0.0 | 0.0 | 0.00 | 0.00 | 0.00 | 63 | 1020.1 |
| 20260506091820 | 12 | 250 | 0.0 | 0.0 | 0.00 | 0.03 | 0.00 | 63 | 1020.1 |
| 20260506091321 | 12 | 250 | 0.0 | 0.0 | 0.00 | 0.03 | 0.00 | 63 | 1020.0 |
| 20260506090821 | 11 | 250 | 0.0 | 0.0 | 0.00 | 0.03 | 0.00 | 64 | 1020.0 |
| 20260506090320 | 11 | 250 | 0.0 | 0.0 | 0.00 | 0.03 | 0.00 | 64 | 1020.0 |
| 20260506085820 | 11 | 247 | 0.0 | 0.0 | 0.00 | 0.05 | 0.00 | 64 | 1019.9 |
| 20260506085320 | 11 | 244 | 0.0 | 0.0 | 0.00 | 0.05 | 0.00 | 64 | 1020.0 |
| 20260506084820 | 11 | 244 | 0.0 | 0.0 | 0.00 | 0.05 | 0.00 | 64 | 1020.0 |
| 20260506084319 | 11 | 243 | 0.0 | 0.0 | 0.00 | 0.05 | 0.00 | 64 | 1020.0 |
| 20260506083319 | 11 | 243 | 0.0 | 0.0 | 0.00 | 0.05 | 0.00 | 64 | 1020.0 |
| 20260506082819 | 11 | 288 | 0.0 | 0.0 | 0.00 | 0.05 | 0.00 | 64 | 1020.1 |
| 20260506081819 | 11 | 288 | 0.0 | 0.0 | 0.00 | 0.05 | 0.00 | 64 | 1020.1 |
| 20260506081319 | 11 | 288 | 0.0 | 0.0 | 0.00 | 0.05 | 0.00 | 64 | 1020.1 |
| 20260506080321 | 11 | 288 | 0.0 | 0.0 | 0.00 | 0.08 | 0.00 | 64 | 1020.0 |
| 20260506073319 | 11 | 288 | 0.0 | 0.0 | 0.00 | 0.13 | 0.00 | 64 | 1019.7 |
| 20260506072319 | 10 | 288 | 0.0 | 0.0 | 0.00 | 0.15 | 0.00 | 64 | 1019.6 |
| 20260506071819 | 10 | 288 | 0.0 | 0.0 | 0.00 | 0.18 | 0.00 | 64 | 1019.6 |
| 20260506071319 | 10 | 288 | 0.0 | 0.0 | 0.00 | 0.18 | 0.00 | 64 | 1019.7 |
| 20260506070812 | 10 | 288 | 0.0 | 0.0 | 0.00 | 0.18 | 0.00 | 64 | 1019.6 |
| 20260506070312 | 10 | 288 | 0.0 | 0.0 | 0.00 | 0.18 | 0.00 | 64 | 1019.6 |
| 20260506062301 | 11 | 288 | 0.0 | 0.0 | 0.00 | 0.20 | 0.18 | 64 | 1019.4 |
| 20260506061802 | 11 | 288 | 0.0 | 0.0 | 0.00 | 0.20 | 0.18 | 64 | 1019.4 |
| 20260506061303 | 11 | 288 | 0.0 | 0.0 | 0.00 | 0.20 | 0.18 | 64 | 1019.3 |
| 20260506060801 | 11 | 288 | 0.0 | 0.0 | 0.00 | 0.20 | 0.18 | 64 | 1019.3 |
| 20260506060303 | 11 | 288 | 0.0 | 0.0 | 0.00 | 0.20 | 0.18 | 64 | 1019.2 |
| 20260506051302 | 11 | 0 | 0.0 | 3.2 | 0.00 | 0.30 | 0.18 | 64 | 1019.0 |
| 20260506050802 | 12 | 0 | 0.0 | 1.6 | 0.00 | 0.30 | 0.18 | 64 | 1019.0 |
| 20260506044802 | 12 | 0 | 0.0 | 3.2 | 0.00 | 0.36 | 0.18 | 63 | 1018.8 |
| 20260506043803 | 12 | 0 | 0.0 | 0.0 | 0.00 | 0.41 | 0.18 | 63 | 1018.8 |
| 20260506043302 | 12 | 0 | 0.0 | 1.6 | 0.00 | 0.43 | 0.18 | 63 | 1018.6 |
| 20260506042803 | 12 | 0 | 0.0 | 1.6 | 0.00 | 0.46 | 0.18 | 63 | 1018.6 |
| 20260506042305 | 13 | 0 | 0.0 | 1.6 | 0.00 | 0.46 | 0.18 | 63 | 1018.6 |
| 20260506041804 | 13 | 0 | 0.0 | 1.6 | 0.00 | 0.48 | 0.18 | 63 | 1018.4 |
| 20260506041302 | 13 | 0 | 0.0 | 3.2 | 0.00 | 0.51 | 0.18 | 63 | 1018.3 |
| 20260506040803 | 13 | 0 | 0.0 | 3.2 | 0.00 | 0.51 | 0.18 | 62 | 1018.3 |
| 20260506040302 | 13 | 0 | 0.0 | 4.8 | 0.00 | 0.51 | 0.18 | 62 | 1018.2 |
| 20260506035802 | 13 | 0 | 3.2 | 4.8 | 0.00 | 0.51 | 0.18 | 62 | 1018.0 |
| 20260506035305 | 13 | 329 | 1.6 | 8.0 | 0.00 | 0.51 | 0.18 | 62 | 1018.0 |
| 20260506034802 | 13 | 323 | 1.6 | 9.7 | 0.00 | 0.53 | 0.18 | 61 | 1017.8 |
| 20260506034302 | 13 | 300 | 3.2 | 9.7 | 0.00 | 0.53 | 0.18 | 61 | 1017.7 |
| 20260506033802 | 13 | 341 | 3.2 | 6.4 | 0.00 | 0.53 | 0.18 | 61 | 1017.6 |
| 20260506033302 | 13 | 238 | 0.0 | 6.4 | 0.00 | 0.53 | 0.18 | 61 | 1017.7 |
| 20260506032803 | 13 | 354 | 1.6 | 11.3 | 0.00 | 0.53 | 0.18 | 60 | 1017.6 |
| 20260506032307 | 14 | 306 | 4.8 | 11.3 | 0.00 | 0.56 | 0.18 | 60 | 1017.4 |
| 20260506031802 | 14 | 299 | 1.6 | 8.0 | 0.00 | 0.56 | 0.18 | 60 | 1017.4 |
| 20260506031306 | 14 | 305 | 3.2 | 8.0 | 0.00 | 0.56 | 0.18 | 60 | 1017.4 |
| 20260506030802 | 14 | 313 | 3.2 | 8.0 | 0.00 | 0.56 | 0.18 | 59 | 1017.3 |
| 20260506030302 | 14 | 343 | 3.2 | 8.0 | 0.00 | 0.56 | 0.18 | 59 | 1017.2 |
| 20260506025801 | 14 | 312 | 3.2 | 8.0 | 0.00 | 0.56 | 0.18 | 59 | 1017.1 |
| 20260506025305 | 14 | 302 | 4.8 | 11.3 | 0.00 | 0.56 | 0.18 | 58 | 1017.1 |
| 20260506024804 | 15 | 293 | 4.8 | 16.1 | 0.00 | 0.56 | 0.18 | 58 | 1017.1 |
| 20260506024301 | 15 | 300 | 6.4 | 16.1 | 0.00 | 0.56 | 0.18 | 58 | 1017.0 |
| 20260506023301 | 15 | 334 | 6.4 | 14.5 | 0.00 | 0.56 | 0.18 | 58 | 1017.0 |
| 20260506022803 | 15 | 334 | 4.8 | 11.3 | 0.00 | 0.56 | 0.18 | 58 | 1017.0 |
| 20260506022305 | 15 | 285 | 3.2 | 11.3 | 0.00 | 0.56 | 0.18 | 58 | 1016.9 |
| 20260506021302 | 15 | 355 | 6.4 | 14.5 | 0.00 | 0.56 | 0.18 | 58 | 1016.8 |
| 20260506020804 | 15 | 324 | 6.4 | 16.1 | 0.00 | 0.56 | 0.18 | 58 | 1016.7 |
| 20260506020302 | 15 | 269 | 4.8 | 16.1 | 0.00 | 0.56 | 0.18 | 58 | 1016.7 |
| 20260506015803 | 15 | 345 | 6.4 | 14.5 | 0.00 | 0.56 | 0.18 | 58 | 1016.6 |
| 20260506015306 | 15 | 0 | 6.4 | 14.5 | 0.00 | 0.56 | 0.18 | 58 | 1016.6 |
| 20260506014804 | 15 | 245 | 6.4 | 16.1 | 0.00 | 0.56 | 0.18 | 58 | 1016.6 |
| 20260506014302 | 16 | 283 | 6.4 | 16.1 | 0.00 | 0.56 | 0.18 | 58 | 1016.6 |
| 20260506013802 | 16 | 268 | 6.4 | 16.1 | 0.00 | 0.56 | 0.18 | 58 | 1016.7 |
| 20260506013304 | 16 | 240 | 4.8 | 14.5 | 0.00 | 0.56 | 0.18 | 57 | 1016.6 |
| 20260506012801 | 16 | 345 | 6.4 | 16.1 | 0.00 | 0.56 | 0.18 | 57 | 1016.6 |
| 20260506012307 | 16 | 255 | 6.4 | 16.1 | 0.00 | 0.56 | 0.18 | 57 | 1016.6 |
| 20260506011802 | 16 | 269 | 6.4 | 16.1 | 0.00 | 0.56 | 0.18 | 57 | 1016.6 |
| 20260506010802 | 16 | 286 | 8.0 | 16.1 | 0.00 | 0.56 | 0.18 | 56 | 1016.6 |
| 20260506010302 | 16 | 358 | 6.4 | 16.1 | 0.00 | 0.56 | 0.18 | 56 | 1016.5 |
| 20260506005802 | 16 | 248 | 6.4 | 17.7 | 0.00 | 0.56 | 0.18 | 56 | 1016.5 |
| 20260506005309 | 16 | 234 | 8.0 | 17.7 | 0.00 | 0.56 | 0.18 | 56 | 1016.5 |
| 20260506004802 | 16 | 299 | 8.0 | 16.1 | 0.00 | 0.56 | 0.18 | 56 | 1016.4 |
| 20260506004304 | 16 | 268 | 8.0 | 16.1 | 0.00 | 0.56 | 0.18 | 56 | 1016.4 |
| 20260506003802 | 16 | 313 | 8.0 | 19.3 | 0.00 | 0.56 | 0.18 | 56 | 1016.4 |
| 20260506003303 | 16 | 309 | 8.0 | 22.5 | 0.00 | 0.56 | 0.18 | 56 | 1016.2 |
| 20260506002802 | 16 | 272 | 9.7 | 22.5 | 0.00 | 0.56 | 0.18 | 56 | 1016.3 |
| 20260506002302 | 16 | 285 | 12.9 | 22.5 | 0.00 | 0.56 | 0.18 | 56 | 1016.4 |
| 20260506001802 | 16 | 330 | 8.0 | 20.9 | 0.00 | 0.56 | 0.18 | 56 | 1016.3 |
| 20260506001302 | 16 | 282 | 8.0 | 20.9 | 0.00 | 0.56 | 0.18 | 57 | 1016.2 |
| 20260506000803 | 16 | 288 | 8.0 | 20.9 | 0.00 | 0.56 | 0.18 | 57 | 1016.2 |
| 20260506000302 | 16 | 38 | 11.3 | 22.5 | 0.00 | 0.56 | 0.18 | 57 | 1016.1 |
| 20260505235803 | 16 | 278 | 11.3 | 25.7 | 0.00 | 0.56 | 0.18 | 56 | 1016.2 |
| 20260505235305 | 16 | 289 | 11.3 | 25.7 | 0.00 | 0.56 | 0.18 | 56 | 1016.3 |
| 20260505234802 | 16 | 283 | 9.7 | 22.5 | 0.00 | 0.56 | 0.18 | 55 | 1016.3 |
| 20260505234302 | 16 | 300 | 8.0 | 19.3 | 0.00 | 0.56 | 0.18 | 56 | 1016.2 |
| 20260505233302 | 16 | 0 | 9.7 | 16.1 | 0.00 | 0.56 | 0.18 | 56 | 1016.2 |
| 20260505232305 | 16 | 279 | 6.4 | 14.5 | 0.00 | 0.56 | 0.18 | 55 | 1016.2 |
| 20260505231802 | 17 | 355 | 8.0 | 16.1 | 0.00 | 0.56 | 0.18 | 55 | 1016.2 |
| 20260505231302 | 17 | 341 | 8.0 | 19.3 | 0.00 | 0.56 | 0.18 | 55 | 1016.1 |
| 20260505230802 | 17 | 303 | 8.0 | 19.3 | 0.00 | 0.56 | 0.18 | 55 | 1016.1 |
| 20260505230303 | 17 | 347 | 4.8 | 17.7 | 0.00 | 0.56 | 0.18 | 55 | 1016.1 |
| 20260505225803 | 17 | 0 | 6.4 | 20.9 | 0.00 | 0.56 | 0.18 | 54 | 1016.2 |
| 20260505225301 | 17 | 0 | 9.7 | 20.9 | 0.00 | 0.56 | 0.18 | 53 | 1016.1 |
| 20260505224803 | 17 | 306 | 8.0 | 17.7 | 0.00 | 0.56 | 0.18 | 53 | 1016.2 |
| 20260505224302 | 18 | 292 | 9.7 | 17.7 | 0.00 | 0.56 | 0.18 | 52 | 1016.1 |
| 20260505223802 | 18 | 261 | 8.0 | 14.5 | 0.00 | 0.56 | 0.18 | 52 | 1016.1 |
| 20260505223303 | 18 | 212 | 3.2 | 14.5 | 0.00 | 0.56 | 0.18 | 51 | 1016.1 |
| 20260505222803 | 18 | 330 | 4.8 | 16.1 | 0.00 | 0.56 | 0.18 | 51 | 1016.1 |
| 20260505221802 | 18 | 351 | 8.0 | 17.7 | 0.00 | 0.56 | 0.18 | 51 | 1016.2 |
| 20260505221304 | 18 | 283 | 6.4 | 11.3 | 0.00 | 0.56 | 0.18 | 51 | 1016.2 |
| 20260505220802 | 18 | 288 | 6.4 | 11.3 | 0.00 | 0.56 | 0.18 | 51 | 1016.3 |
| 20260505220303 | 18 | 290 | 4.8 | 14.5 | 0.00 | 0.56 | 0.18 | 50 | 1016.2 |
| 20260505215305 | 18 | 354 | 4.8 | 11.3 | 0.00 | 0.56 | 0.18 | 50 | 1016.3 |
| 20260505214801 | 18 | 320 | 4.8 | 9.7 | 0.00 | 0.56 | 0.18 | 49 | 1016.3 |
| 20260505214302 | 18 | 279 | 3.2 | 9.7 | 0.00 | 0.56 | 0.18 | 49 | 1016.3 |
| 20260505213801 | 18 | 340 | 3.2 | 16.1 | 0.00 | 0.56 | 0.18 | 50 | 1016.5 |
| 20260505213303 | 18 | 354 | 4.8 | 16.1 | 0.00 | 0.56 | 0.18 | 49 | 1016.4 |
| 20260505212803 | 19 | 299 | 8.0 | 14.5 | 0.00 | 0.56 | 0.18 | 48 | 1016.4 |
| 20260505212301 | 18 | 310 | 8.0 | 14.5 | 0.00 | 0.56 | 0.18 | 49 | 1016.4 |
| 20260505211302 | 18 | 109 | 4.8 | 16.1 | 0.00 | 0.56 | 0.18 | 52 | 1016.5 |
| 20260505210803 | 18 | 313 | 8.0 | 16.1 | 0.00 | 0.56 | 0.18 | 52 | 1016.6 |
| 20260505210302 | 17 | 271 | 4.8 | 14.5 | 0.00 | 0.56 | 0.18 | 52 | 1016.6 |
| 20260505205803 | 17 | 250 | 6.4 | 9.7 | 0.00 | 0.56 | 0.18 | 52 | 1016.6 |
| 20260505205305 | 17 | 298 | 3.2 | 9.7 | 0.00 | 0.56 | 0.18 | 53 | 1016.7 |
| 20260505204803 | 17 | 312 | 3.2 | 14.5 | 0.00 | 0.56 | 0.18 | 52 | 1016.7 |
| 20260505204304 | 17 | 310 | 4.8 | 14.5 | 0.00 | 0.56 | 0.18 | 53 | 1016.7 |
| 20260505203802 | 17 | 338 | 4.8 | 8.0 | 0.00 | 0.56 | 0.18 | 53 | 1016.7 |
| 20260505203304 | 17 | 265 | 4.8 | 11.3 | 0.00 | 0.56 | 0.18 | 54 | 1016.7 |
| 20260505202804 | 16 | 200 | 4.8 | 14.5 | 0.00 | 0.56 | 0.18 | 54 | 1016.7 |
| 20260505202306 | 16 | 262 | 4.8 | 14.5 | 0.00 | 0.56 | 0.18 | 54 | 1016.7 |
| 20260505201803 | 16 | 282 | 6.4 | 14.5 | 0.00 | 0.56 | 0.18 | 54 | 1016.8 |